Location: Bucharest
(44.4268°N, 26.1025°E)
Time: 01:09:37
(UTC+03:00)

CUBESAT XI-V - Pass Details

Date: 01 July 2022
Orbit: 668 x 690 km, 98.1° (Epoch: 15 August)

Event Time Altitude Azimuth Distance (km) Brightness Sun altitude
Exits shadow 02:41:00 27° 145° (SE) 1,291 ? -19.9°
Maximum altitude 02:43:24 62° 73° (ENE) 761 ? -19.8°
Drops below altitude 10° 02:47:57 10° 353° (N) 2,110 ? -19.5°
Sets 02:50:12 0° 351° (N) 3,026 ? -19.3°
